Location: Powder Track
(41.8531°N, 72.3584°W)
Time: 00:21:52
(UTC+00:00)

Vanguard 1 Rocket - Pass Details

Date: 07 August 2021
Orbit: 650 x 4226 km, 34.3° (Epoch: 19 September)

Event Time Altitude Azimuth Distance (km) Brightness Sun altitude
Rises 13:43:40 0° 243° (WSW) 8,467 12.0 41.8°
Reaches altitude 10° 13:49:51 10° 240° (WSW) 7,355 11.8 42.9°
Maximum altitude 14:13:21 61° 168° (SSE) 3,372 11.4 46.9°
Drops below altitude 10° 14:26:42 10° 93° (E) 4,486 11.7 49.2°
Sets 14:29:27 0° 89° (E) 5,130 11.8 49.6°
